Regional Weather Roundup
Issued by NWS

Home | Current Version | Previous Version | Text Only | Print | Product List | Glossary Off
Versions: 1 2 3 4 5 6 7 8 9 10 11 12 13 14 15 16 17 18 19 20 21 22 23 24 25 26 27

000
ASUS45 KTFX 170910
RWRMT
MONTANA REGIONAL WEATHER ROUNDUP
NATIONAL WEATHER SERVICE GREAT FALLS MT
200 AM MST SUN DEC 17 2017

NOTE: "FAIR" INDICATES FEW OR NO CLOUDS BELOW 12000 FEET WITH NO
SIGNIFICANT WEATHER AND/OR OBSTRUCTIONS TO VISIBILITY.

MTZ001>007-043-171000-
WEST OF THE DIVIDE

CITY           SKY/WX    TMP DP  RH WIND       PRES   REMARKS
KALISPELL      CLOUDY    25  21  85 S6        30.12S WCI  18
MISSOULA       FAIR      16  13  88 E3        30.17F
BUTTE          FOG        7   4  87 S3        30.05S VSB 1/4
MULLAN PASS    FAIR      17  12  80 SW8       30.01S WCI   7
ANACONDA         N/A     18   9  68 S9        30.07R WCI   6
DEER LODGE       N/A      5   3  92 CALM      30.11R
EUREKA           N/A     28  18  64 MISG      30.08F
HAMILTON         N/A     19  10  68 S6        30.16F WCI  11
LIBBY            N/A     19  18  93 CALM      30.12F
PLAINS           N/A     16  10  77 CALM      30.18S
RONAN            N/A     11   6  80 CALM      30.15S
$$

MTZ008-052>055-171000-
SOUTHWEST MONTANA

CITY           SKY/WX    TMP DP  RH WIND       PRES   REMARKS
BOZEMAN        FOG        8   6  92 CALM      30.06S VSB 1/2
DILLON         FAIR      14   7  73 S14       30.05S WCI  -1
W YELLOWSTONE  FAIR      -9 -13  84 CALM      30.02R
ENNIS          CLOUDY    10   9  92 SE7       30.09R WCI   0
THREE FORKS      N/A      0  -5  79 CALM      30.04S VSB 0
TWIN BRIDGES     N/A     11   1  64 CALM      30.05R
$$

MTZ009-010-012-014-046-048-049-054-171000-
EAST SLOPES AND CENTRAL MONTANA

CITY           SKY/WX    TMP DP  RH WIND       PRES   REMARKS
CUT BANK       FAIR      24  14  65 W20       29.78F WCI  10
GREAT FALLS    FAIR      24  12  60 SW21      29.89F WCI   9
MALMSTROM AFB  FAIR      21  14  76 SW15      29.91F WCI   7
HELENA         FAIR      24  13  62 W6        30.04S WCI  17
BOWMANS CRNR   FAIR      22  11  63 SW23      29.87F WCI   5
CHOTEAU          N/A     27   9  46 SW5       29.84F
CONRAD           N/A     10   5  80 S1        29.86
FAIRFIELD      FAIR      23   9  54 S12       29.84F WCI  12
POWER          FAIR      19  11  72 MISG      29.85F
RAYNESFORD     FAIR      24  11  59 SW7       29.90F WCI  16
ULM            FAIR      20  12  70 SW9       29.92F WCI   9
$$

MTZ011-013-016-021-045-047-050-051-171000-
NORTH CENTRAL MONTANA

CITY           SKY/WX    TMP DP  RH WIND       PRES   REMARKS
HAVRE          FAIR      22  17  81 SW10      29.89F WCI  11
LEWISTOWN      FAIR      26  15  63 SW20G26   29.89F WCI  12
N BAR RANCH    FAIR      25  14  63 VRB5      29.92F
CHINOOK          N/A     25  19  80 CALM      29.91F
DENTON         FAIR      14   9  80 MISG      29.89F
GEYSER         FAIR      17  11  76 SW13      29.88F WCI   4
GRASS RANGE    FAIR      21  15  78 SW3       29.88F
STANFORD       FAIR      14   5  67 SW3       29.88F
WINIFRED       FAIR      23  17  80 SW7       29.90F WCI  14
$$

MTZ017>020-022>027-061-062-171000-
NORTHEAST MONTANA

CITY           SKY/WX    TMP DP  RH WIND       PRES   REMARKS
GLASGOW        FAIR      16  13  88 SE10      29.98F WCI   4
JORDAN           N/A     11   6  81 CALM      29.99F
SIDNEY         FAIR      19  15  84 SW5       30.04S
WOLF POINT     FAIR      11   6  81 CALM      30.02F
MALTA          CLOUDY    27  19  74 SW10      29.94F WCI  17
PLENTYWOOD       N/A     21  16  79 CALM      29.99S
POPLAR           N/A     16  12  86 CALM      30.03F
SCOBEY           N/A     18   8  64 W2        29.94F
$$

MTZ028>42-056>058-171000-
SOUTHCENTRAL AND SOUTHEAST MONTANA

CITY           SKY/WX    TMP DP  RH WIND       PRES   REMARKS
BAKER          FAIR      21  19  92 CALM      30.03S
BILLINGS       FOG       24  24 100 SW12      29.99F VSB 1/2 WCI  13
LIVINGSTON     FAIR       9   7  92 NW14      29.99F WCI  -7
MILES CITY     FAIR      20  19  96 S8        30.01F WCI  10
BIG TIMBER     CLEAR     19  18  93 W25       29.98F WCI   2
EKALAKA          N/A     25  18  74 SE2       29.98F
FORSYTH          N/A     25  21  86 CALM      30.01F
HARLOWTON      FAIR       8   6  93 W6        29.95F WCI  -2
LAUREL           N/A     25  23  93 SW10      30.01F WCI  15
ROUNDUP          N/A     22  17  81 S9        29.90F WCI  12
$$

REGIONAL REPORTS...DAKOTAS

CITY           SKY/WX    TMP DP  RH WIND       PRES   REMARKS
WILLISTON      FAIR      19  17  92 S5        30.02F
MINOT          FAIR      24  17  74 SW12      30.00S WCI  13
DICKINSON      FAIR      20  16  84 W7        30.00F WCI  11
BEACH          FAIR      18  18 100 SW5       30.04F
CROSBY         CLOUDY    23  18  80 SW13      29.99S WCI  11
TIOGA          FAIR      18  18 100 W7        30.00F WCI   8
BISMARCK       FAIR      25  21  85 SW3       30.05F
GRAND FORKS    FAIR      17  15  92 S7        30.03S WCI   8
FARGO          CLOUDY    24  23  96 S6        30.07S WCI  17
BUFFALO SD       N/A     24  21  88 SW5       29.96F
RAPID CITY     CLOUDY    29  26  89 NW6       30.04S WCI  23
$$

REGIONAL REPORTS...WYOMING/IDAHO/WASHINGTON

CITY           SKY/WX    TMP DP  RH WIND       PRES   REMARKS
GILLETTE       LGT SNOW  25  24  96 CALM      29.99S FOG
SHERIDAN       FOG       24  23  96 CALM      29.98F VSB 1/4
BUFFALO WY     FAIR      23  18  81 S6        29.97F WCI  16
CODY           CLOUDY    23  21  92 E6        29.99F WCI  16
YELLOWSTONE LA   N/A     -3  -6  87 NW3       30.00R
IDAHO FALLS      N/A     20  19  96 SW8       30.14S VSB 1/4 WCI  10
SALMON         FAIR       7   4  87 SE3       30.21R
BOISE          FAIR      20  16  84 W3        30.23R
SPOKANE        CLOUDY    28  25  88 S9        30.18F WCI  19
$$

REGIONAL REPORTS...ALBERTA

CITY           SKY/WX    TMP DP  RH WIND       PRES   REMARKS
EDMONTON       PTCLDY    28  12  50 SW8       29.58F WCI  20
CALGARY        PTCLDY    23   5  46 S6        29.64F WCI  16
LETHBRIDGE     CLEAR     30  16  55 W26G35    29.72F WCI  16
MEDICINE HAT   CLEAR     25  16  68 SW15G21   29.78F WCI  12
$$

REGIONAL REPORTS...SASKATCHEWAN

CITY           SKY/WX    TMP DP  RH WIND       PRES   REMARKS
SWIFT CURRENT  CLEAR     21  18  86 S14       29.82F WCI   8
REGINA         CLEAR     16  12  86 SW8       29.90F WCI   5
SASKATOON      CLEAR     19  16  86 S8        29.80F WCI   9
$$




USA.gov is the U.S. government's official web portal to all federal, state and local government web resources and services.